This demonstration page uses our WeatherBlox Daily Observations layout. Learn more.

Left ArrowRight Arrow

39.01783, -85.05884

Hourly Observations for August 7, 2022

Temp ( °F °C ) Dew Point ( °F °C ) Humidity (%) Winds ( mph kmh ) Pressure ( in mb ) Visibility ( mi km ) Precip ( " mm )
12:52 am 00:52 Clear 73 22.8 71 21.7 94 94 SSW 9 15 30.14 1021 10 16 0.00 0.00
1:52 am 01:52 Clear 72 22.2 70 21.1 94 94 SW 6 9 30.14 1021 10 16 0.00 0.00
2:52 am 02:52 Clear 71 21.7 70 21.1 96 96 SSW 6 9 30.14 1021 10 16 0.00 0.00
3:52 am 03:52 Partly Cloudy 70 21.1 70 21.1 100 100 SSW 7 11 30.14 1021 10 16 0.00 0.00
4:52 am 04:52 Mostly Clear 70 21.1 70 21.1 100 100 S 5 7 30.14 1021 10 16 0.00 0.00
5:52 am 05:52 Clear 69 20.6 69 20.6 100 100 SSW 5 7 30.13 1020 10 16 0.00 0.00
6:52 am 06:52 Mostly Sunny 69 20.6 69 20.6 100 100 Calm 30.14 1021 10 16 0.00 0.00
7:52 am 07:52 Mostly Sunny 71 21.7 71 21.7 100 100 S 8 13 30.15 1021 9 14 0.00 0.00
8:52 am 08:52 Partly Cloudy 74 23.3 72 22.2 94 94 S 6 9 30.16 1021 10 16 0.00 0.00
9:52 am 09:52 Mostly Sunny 78 25.6 74 23.3 87 87 SW 7 11 30.16 1022 10 16 0.00 0.00
10:52 am 10:52 Partly Cloudy 81 27.2 76 24.4 85 85 SSW 6 9 30.16 1021 10 16 0.00 0.00
11:52 am 11:52 Partly Cloudy 83 28.3 76 24.4 79 79 SSW 8 13 30.16 1021 10 16 0.00 0.00
12:52 pm 12:52 Partly Cloudy 85 29.4 76 24.4 75 75 SSW 6 9 30.14 1021 10 16 0.00 0.00
1:52 pm 13:52 Mostly Cloudy 87 30.6 77 25 72 72 W 8 13 30.12 1020 10 16 0.00 0.00
2:48 pm 14:48 Mostly Cloudy with Heavy Rain 81 27 75 24 84 84 S 20 31 30.10 1019 2 3 0.00 0.00
2:52 pm 14:52 Mostly Cloudy with Heavy Rain 79 26.1 75 23.9 88 88 VRB 5 7 30.12 1020 1 1 0.06 1.52
3:00 pm 15:00 Mostly Cloudy with Light Rain 84 28.9 76 24.4 77 77 S 10 17 30.09 1019 2 3 0.12 3.05
3:07 pm 15:07 Partly Cloudy 84 28.9 77 25 80 80 S 10 17 30.08 1019 10 16 0.12 3.05
3:42 pm 15:42 Mostly Cloudy with Nearby Thunderstorms 81 27.2 74 23.3 79 79 SW 12 19 30.10 1019 10 16 0.12 3.05
3:49 pm 15:49 Mostly Cloudy with Thunderstorms 79 26 73 23 84 84 W 13 20 30.10 1019 6 10 0.12 3.05
3:50 pm 15:50 Mostly Cloudy with Thunderstorms 79 26.1 74 23.3 85 85 W 14 22 30.11 1020 5 8 0.12 3.05
3:57 pm 15:57 Mostly Cloudy with Thunderstorms 77 25 74 23.3 90 90 W 8 13 30.10 1019 4 6 0.01 0.25
4:25 pm 16:25 Cloudy with Light Rain 79 26.1 74 23.3 85 85 SSE 5 7 30.08 1019 9 14 0.01 0.25
4:52 pm 16:52 Mostly Cloudy 81 27.2 75 23.9 82 82 S 3 6 30.08 1019 10 16 0.01 0.25
5:52 pm 17:52 Partly Cloudy 86 30 77 25 75 75 SW 6 9 30.07 1018 10 16 0.00 0.00
6:52 pm 18:52 Partly Cloudy 85 29.4 76 24.4 75 75 SSW 7 11 30.07 1018 10 16 0.00 0.00
7:52 pm 19:52 Partly Cloudy 79 26.1 73 22.8 82 82 S 8 13 30.07 1018 10 16 0.00 0.00
8:52 pm 20:52 Partly Cloudy 76 24.4 70 21.1 82 82 S 7 11 30.07 1018 10 16 0.00 0.00
9:52 pm 21:52 Partly Cloudy 76 24.4 73 22.8 91 91 SSW 9 15 30.08 1019 10 16 0.00 0.00
10:52 pm 22:52 Mostly Clear 75 23.9 73 22.8 94 94 S 10 17 30.09 1019 10 16 0.00 0.00
11:52 pm 23:52 Mostly Clear 74 23.3 73 22.8 97 97 S 8 13 30.08 1019 10 16 0.00 0.00

Powered by AerisWeather